W1HS Weather Reports


time (UTC)temp
C
wind
direction
speed
KPH
gust
KPH
rain 1hr
cm
rain 24hr
cm
rain mn
cm
humidity
%
barometer
mb
20260507132218 8 270 9.7 14.5 0.00 1.47 0.00 69 988.1
20260507131337 8 293 8.0 16.1 0.00 1.47 0.00 65 988.2
20260507130720 8 338 9.7 16.1 0.00 1.47 0.00 67 988.4
20260507125719 8 270 14.5 27.4 0.00 1.47 0.00 78 988.3
20260507124722 8 270 9.7 11.3 0.00 1.47 0.00 86 988.2
20260507123728 8 270 8.0 12.9 0.00 1.47 0.00 88 988.2
20260507122719 7 270 9.7 14.5 0.00 1.47 0.00 90 988.1
20260507121728 7 293 3.2 6.4 0.00 1.47 0.00 87 988.1
20260507120719 7 293 3.2 6.4 0.00 1.47 0.00 90 987.9
20260507115719 7 203 1.6 3.2 0.00 1.47 0.00 90 987.8
20260507114719 7 0.0 0.0 0.00 1.47 0.00 91 987.9
20260507113826 6 0.0 0.0 0.00 1.47 0.00 91 988.0
20260507112819 6 0.0 0.0 0.00 1.47 0.00 92 988.0
20260507111819 6 0.0 0.0 0.00 1.47 0.00 94 987.8
20260507110820 6 0.0 0.0 0.00 1.47 0.00 95 987.8
20260507105819 5 0.0 0.0 0.00 1.47 0.00 94 987.8
20260507104940 5 0.0 0.0 0.00 1.47 0.00 94 987.8
20260507104120 5 0.0 0.0 0.00 1.47 0.00 95 987.6
20260507103123 5 0.0 0.0 0.00 1.47 0.00 95 987.5
20260507102122 5 0.0 0.0 0.00 1.47 0.00 94 987.4
20260507101120 5 0.0 0.0 0.00 1.47 0.00 94 987.2
20260507100233 5 0.0 0.0 0.00 1.47 0.00 94 987.3
20260507095719 5 0.0 0.0 0.00 1.47 0.00 94 987.4
20260507094721 5 0.0 0.0 0.00 1.47 0.00 94 987.4
20260507093720 5 0.0 0.0 0.00 1.47 0.00 94 987.6
20260507092831 5 0.0 0.0 0.00 1.47 0.00 93 987.6
20260507092420 5 0.0 0.0 0.00 1.47 0.00 93 987.7
20260507091419 5 0.0 0.0 0.00 1.47 0.00 92 987.8
20260507090419 5 0.0 0.0 0.00 1.47 0.00 92 987.8
20260507085422 5 0.0 0.0 0.00 1.47 0.00 93 987.9
20260507084425 5 315 1.6 4.8 0.00 1.47 0.00 93 987.8
20260507083421 5 293 1.6 4.8 0.00 1.47 0.00 93 987.5
20260507082427 6 0.0 1.6 0.00 1.47 0.00 93 987.6
20260507081419 6 0.0 0.0 0.00 1.47 0.00 93 987.7
20260507080419 6 0.0 0.0 0.00 1.47 0.00 93 987.7
20260507075544 6 0.0 1.6 0.00 1.47 0.00 93 987.6
20260507075221 6 0.0 0.0 0.00 1.47 0.00 94 987.6
20260507074219 6 270 3.2 4.8 0.00 1.47 0.00 94 987.7
20260507073219 6 270 3.2 6.4 0.00 1.47 0.00 94 987.6
20260507072219 6 270 1.6 6.4 0.00 1.47 0.00 94 987.7
20260507071219 6 270 1.6 4.8 0.00 1.47 0.00 94 987.6
20260507070218 6 0.0 0.0 0.00 1.47 0.00 94 987.1
20260507065221 6 270 1.6 4.8 0.00 1.47 0.00 94 987.2
20260507064219 6 270 1.6 4.8 0.00 1.47 0.00 95 986.9
20260507063218 6 0.0 0.0 0.00 1.47 0.00 95 986.9
20260507062219 6 0.0 0.0 0.00 1.47 0.00 95 987.3
20260507061221 6 0.0 0.0 0.00 1.47 0.00 95 987.6
20260507060219 6 0.0 0.0 0.00 1.47 0.00 95 987.3
20260507055221 6 0.0 0.0 0.00 1.47 0.00 95 987.6
20260507054326 6 0.0 3.2 0.00 1.47 0.00 95 987.7
20260507053707 6 0.0 0.0 0.00 1.47 0.00 95 987.9
20260507052954 6 270 1.6 6.4 0.00 1.47 0.00 95 987.8
20260507052320 6 0.0 0.0 0.00 1.47 0.00 95 988.0
20260507051320 6 0.0 0.0 0.00 1.47 0.00 95 987.6
20260507050319 6 0.0 3.2 0.00 1.47 0.00 95 987.5
20260507045321 6 270 4.8 6.4 0.00 1.47 0.00 95 987.5
20260507044318 6 270 4.8 6.4 0.00 1.47 0.00 96 987.6
20260507043533 6 0.0 0.0 0.00 1.47 0.00 96 987.5
20260507043051 6 0.0 0.0 0.00 1.47 0.00 96 987.4
20260507042335 6 0.0 0.0 0.00 1.47 0.00 95 987.4
20260507041845 7 0.0 0.0 0.00 1.47 0.00 95 987.5
20260507040820 7 0.0 3.2 0.00 1.47 0.00 95 987.7
20260507040427 7 270 4.8 6.4 0.00 1.47 0.00 96 987.6
20260507035919 7 0.0 3.2 0.00 1.47 1.47 96 987.6
20260507034919 7 293 1.6 3.2 0.03 1.47 1.47 95 987.5
20260507033919 7 293 4.8 8.0 0.03 1.47 1.47 95 987.4
20260507031945 7 315 4.8 6.4 0.08 1.47 1.47 95 987.6
20260507031729 7 315 3.2 8.0 0.08 1.47 1.47 95 987.6
20260507031431 7 0.0 0.0 0.08 1.47 1.47 95 987.6
20260507030713 7 0.0 4.8 0.08 1.47 1.47 95 987.6
20260507030709 7 315 1.6 6.4 0.10 1.45 1.45 95 987.5
20260507023816 8 0.0 0.0 0.08 1.42 1.42 95 987.6
20260507023621 8 0.0 0.0 0.08 1.42 1.42 95 987.7
20260507022618 8 0.0 0.0 0.08 1.42 1.42 95 987.7
20260507021619 8 0.0 3.2 0.05 1.40 1.40 95 987.7
20260507020620 8 0.0 0.0 0.08 1.40 1.40 95 987.7
20260507015620 8 0.0 1.6 0.05 1.37 1.37 95 987.6
20260507014620 8 0.0 0.0 0.03 1.35 1.35 95 987.4
20260507013619 8 293 3.2 6.4 0.03 1.35 1.35 95 987.5
20260507012618 9 315 1.6 4.8 0.03 1.35 1.35 95 987.3
20260507011620 9 0.0 1.6 0.03 1.35 1.35 95 987.0
20260507010619 10 23 3.2 6.4 0.00 1.32 1.32 95 986.9
20260507005620 10 0.0 3.2 0.00 1.32 1.32 95 986.7
20260507004618 10 0 1.6 8.0 0.03 1.32 1.32 94 986.3
20260507003619 11 0.0 3.2 0.03 1.32 1.32 95 986.3
20260507002618 11 0.0 3.2 0.05 1.32 1.32 95 986.3
20260507001619 11 315 3.2 6.4 0.08 1.32 1.32 95 985.8
20260507000618 11 0.0 0.0 0.23 1.32 1.32 95 985.7
20260506235619 12 0.0 1.6 0.38 1.32 1.32 94 985.5
20260506234620 12 315 4.8 8.0 0.36 1.30 1.30 94 985.4
20260506233618 13 0.0 1.6 0.36 1.30 1.30 94 985.2
20260506232618 13 315 4.8 12.9 0.33 1.27 1.27 95 984.9
20260506231618 14 293 8.0 11.3 0.30 1.24 1.24 95 984.8
20260506230619 14 248 8.0 12.9 0.20 1.09 1.09 95 984.5
20260506225618 14 225 6.4 12.9 0.13 0.94 0.94 95 984.3
20260506224620 14 225 1.6 3.2 0.13 0.94 0.94 95 984.3
20260506223633 14 225 6.4 11.3 0.13 0.94 0.94 94 984.3
20260506223551 14 225 6.4 12.9 0.13 0.94 0.94 94 984.4
20260506222524 14 203 1.6 8.0 0.13 0.94 0.94 94 984.4
20260506221628 14 225 8.0 17.7 0.13 0.94 0.94 94 984.3
20260506220618 14 180 6.4 19.3 0.08 0.89 0.89 94 984.3
20260506215618 14 225 11.3 17.7 0.00 0.81 0.81 94 984.1
20260506214618 14 225 19.3 29.0 0.00 0.81 0.81 94 984.0
20260506213620 14 248 9.7 22.5 0.03 0.81 0.81 94 984.1
20260506212618 14 203 14.5 27.4 0.03 0.81 0.81 94 984.3
20260506211738 15 248 14.5 27.4 0.03 0.81 0.81 94 984.3
20260506205921 15 158 11.3 19.3 0.03 0.81 0.81 94 984.2
20260506204921 15 225 6.4 12.9 0.03 0.81 0.81 93 984.3
20260506203919 15 203 12.9 24.1 0.00 0.79 0.79 93 984.2
20260506202918 15 225 17.7 24.1 0.03 0.79 0.79 93 984.3
20260506201918 15 203 11.3 20.9 0.03 0.79 0.79 93 984.4
20260506200918 15 158 9.7 29.0 0.03 0.79 0.79 93 984.4
20260506195918 15 180 14.5 27.4 0.05 0.79 0.79 93 984.4
20260506194933 15 225 11.3 19.3 0.08 0.79 0.79 94 984.6
20260506193923 15 180 4.8 11.3 0.18 0.79 0.79 94 984.6
20260506193033 15 203 6.4 16.1 0.28 0.76 0.76 94 984.6
20260506192825 15 203 6.4 19.3 0.28 0.76 0.76 94 984.8
20260506191920 15 180 9.7 17.7 0.33 0.76 0.76 94 984.8
20260506190920 15 203 6.4 16.1 0.36 0.76 0.76 94 984.8
20260506185919 15 225 3.2 6.4 0.36 0.74 0.74 94 984.8
20260506184920 15 158 9.7 17.7 0.36 0.71 0.71 94 985.1
20260506183919 15 203 4.8 8.0 0.28 0.61 0.61 94 985.4
20260506182918 15 225 8.0 14.5 0.20 0.48 0.48 93 985.3
20260506181927 15 203 11.3 25.7 0.23 0.43 0.43 93 985.5
20260506180922 15 203 6.4 16.1 0.23 0.41 0.41 93 985.6
20260506175919 15 225 14.5 30.6 0.25 0.38 0.38 93 985.9
20260506174920 15 225 14.5 25.7 0.25 0.36 0.36 93 986.3
20260506173920 15 225 6.4 16.1 0.28 0.33 0.33 93 986.5
20260506172921 15 225 9.7 17.7 0.25 0.28 0.28 92 986.7
20260506171920 15 203 9.7 17.7 0.18 0.20 0.20 92 986.8
20260506170948 15 203 6.4 17.7 0.18 0.18 0.18 92 986.7
20260506170445 15 203 9.7 19.3 0.13 0.13 0.13 91 986.7
20260506170126 15 225 1.6 6.4 0.13 0.13 0.13 91 986.6
20260506165849 15 225 9.7 14.5 0.13 0.13 0.13 91 986.6
20260506165350 15 225 3.2 9.7 0.10 0.10 0.10 90 986.6
20260506165157 15 180 8.0 14.5 0.10 0.10 0.10 90 986.6
20260506164912 15 225 11.3 17.7 0.08 0.08 0.08 90 986.6
20260506163719 15 248 4.8 14.5 0.05 0.05 0.05 89 986.8
20260506162720 15 225 3.2 8.0 0.03 0.03 0.03 88 986.9
20260506161719 16 225 1.6 3.2 0.00 0.00 0.00 86 987.0
20260506160720 16 203 12.9 22.5 0.00 0.00 0.00 85 986.9
20260506155910 16 225 4.8 11.3 0.00 0.00 0.00 85 987.1
20260506154719 16 180 6.4 17.7 0.00 0.00 0.00 85 987.3
20260506153817 15 225 11.3 16.1 0.00 0.00 0.00 84 987.5
20260506153437 15 225 9.7 14.5 0.00 0.00 0.00 85 987.5
20260506153246 15 225 3.2 6.4 0.00 0.00 0.00 86 987.5
20260506152628 15 225 4.8 8.0 0.00 0.00 0.00 85 987.6
20260506151714 15 225 6.4 14.5 0.00 0.00 0.00 83 987.9
20260506150922 16 225 8.0 14.5 0.00 0.00 0.00 82 988.1
20260506145920 16 203 6.4 11.3 0.00 0.00 0.00 81 988.1
20260506144922 16 225 9.7 19.3 0.00 0.00 0.00 80 988.1
20260506143921 16 225 1.6 4.8 0.00 0.00 0.00 80 988.0
20260506142920 16 225 3.2 6.4 0.00 0.00 0.00 80 987.8
20260506141919 16 225 6.4 16.1 0.00 0.00 0.00 80 987.8
20260506140918 16 203 1.6 8.0 0.00 0.00 0.00 81 987.9
20260506135920 15 293 1.6 8.0 0.00 0.00 0.00 82 987.8
20260506134922 15 203 9.7 19.3 0.00 0.00 0.00 83 987.8
20260506133919 15 158 3.2 14.5 0.00 0.00 0.00 84 987.9